SCP
0 0 0 0 0 0 0 0 0 0 0 0 0 0 0 0 0 0 0 0 0 0 0 0 0 0 0 0 0 0 0 0 0 0 0 0 0 0 0 0 0 0 0 0 0 0 0 0 0 0 0 -0 -0 -0
0 0 0 0 0 0 0 0 0 0 0 0 0 0 0 0 0 0 0 0 0 0 0 0 0 0 0 0 0 0 0 0 0 0 0 0 0 0 0 0 0 0 0 0 0 0 -0 -0 -0 -0 -0 -0 -0 -0
0 0 0 0 0 0 0 0 0 0 0 0 0 0 0 0 0 0 0 0 0 0 0 0 0 0 0 0 0 0 0 0 0 0 0 0 0 0 0 0 0 0 0 0 0 0 0 0 -0 -0 0 -0 -0 -0
0 0 0 0 0 0 0 0 0 0 0 0 0 0 0 0 0 0 0 0 0 0 0 0 0 0 0 0 0 0 0 0 0 0 0 0 0 0 0 0 0 0 0 0 0 0 0 0 0 0 -0 0 0 -0
0 0 0 0 0 0 0 0 0 0 0 0 0 0 -0 0 0 0 0 0 0 0 0 0 0 0 0 0 0 0 0 0 0 0 0 0 0 0 0 0 0 0 0 0 0 0 0 0 0 0 0 0 -0 -0
0 0 0 0 0 0 0 0 0 0 0 0 0 0 0 0 0 0 0 0 0 0 0 0 0 0 0 0 0 0 0 0 0 0 0 0 0 0 0 0 0 0 0 0 0 0 0 0 0 0 0 0 0 0
0 0 0 0 0 0 0 0 0 0 0 0 0 0 0 0 0 0 0 0 0 0 0 0 0 0 0 0 0 0 0 0 0 0 0 0 0 0 0 0 0 0 0 0 0 0 0 0 0 0 0 0 0 0
0 0 0 0 0 0 0 0 0 0 0 0 0 0 0 0 0 0 0 0 0 0 0 0 0 0 0 0 0 0 0 0 0 0 0 0 0 0 0 0 0 0 0 0 0 0 0 0 0 0 0 0 0 0
0 0 0 0 0 0 0 0 0 0 0 0 0 0 0 0 0 0 0 0 0 0 0 0 0 0 0 0 0 0 0 0 0 0 0 0 0 0 0 0 0 0 0 0 0 0 0 0 0 0 0 0 0 0
0 0 0 0 0 0 0 0 0 0 0 0 0 0 0 0 0 0 0 0 0 0 0 0 0 0 0 0 0 0 0 0 0 0 0 0 0 0 0 0 0 0 0 0 0 0 0 0 0 0 0 0 0 0
0 0 0 0 0 0 0 0 0 0 0 0 0 0 0 0 0 0 0 0 0 0 0 0 0 0 0 0 0 0 0 0 0 0 0 0 0 0 0 0 0 0 0 0 0 0 0 0 0 0 0 0 0 0
0 0 0 0 0 0 0 0 0 0 0 0 0 0 0 0 0 0 0 0 0 0 0 0 0 0 0 0 0 0 0 0 0 0 0 0 0 0 0 0 0 0 0 0 0 0 0 0 0 0 0 0 0 -0
0 0 0 0 0 0 0 0 0 0 0 0 0 0 0 0 0 0 0 0 0 0 0 0 0 0 0 0 0 0 0 0 0 0 0 0 0 0 0 0 0 0 0 0 0 0 0 0 0 -0 -0 -0 -0 -0
0 0 0 0 0 0 0 0 0 0 0 0 0 0 0 0 0 0 0 0 0 0 0 0 0 0 0 0 0 0 0 0 0 0 0 0 0 0 0 0 0 0 0 0 0 0 0 -0 -0 -0 -0 -0 -0 -0
0 0 0 0 0 0 0 0 0 0 0 0 0 0 0 0 0 0 0 0 0 0 0 0 0 0 0 0 0 0 0 0 0 0 0 0 0 0 0 0 0 0 0 0 0 -0 -0 -0 -0 0 -0 -0 0 0
0 0 0 0 0 0 0 0 0 0 0 0 0 0 0 0 0 0 0 0 0 0 0 0 0 0 0 0 0 0 0 0 0 0 0 0 0 0 0 0 0 0 0 -0 -0 -0 -0 0 0 0 0 0 0 0
0 0 0 0 0 0 0 0 0 0 0 0 0 0 0 0 0 0 0 0 0 0 0 0 0 0 0 0 0 0 0 0 0 0 0 0 0 0 0 0 0 -0 -0 -0 -0 0 0 0 0 -0 0 0 0 0
0 0 0 0 0 0 0 0 0 0 0 0 0 0 0 0 0 0 0 0 0 0 0 0 0 0 0 0 0 0 0 0 0 0 0 0 0 0 0 0 -0 -0 -0 -0 0 0 0 -0 -0 -0 -0 -0 0 0
0 0 0 0 0 0 0 0 0 0 0 0 0 0 0 0 0 0 0 0 0 0 0 0 0 0 0 0 0 0 0 0 0 0 0 0 0 0 0 -0 -0 -0 0 0 0 0 -0 -0 -0 -0 0 0 0 0
0 -0 -0 0 0 0 0 0 0 0 0 0 0 0 0 0 0 0 0 0 0 0 0 0 0 0 0 0 0 0 0 0 0 0 0 0 0 0 0 -0 -0 0 0 -0 0 -0 -0 0 -0 -0 0 0 0 0
0 0 0 0 0 0 0 0 0 0 0 0 0 0 0 0 0 0 0 0 0 0 0 0 0 0 0 0 0 0 0 0 0 0 0 0 0 0 0 0 0 0 0 0 0 0 0 -0 -0 -0 -0 0 0 0
0 0 0 0 0 0 0 0 0 0 0 0 0 0 0 0 0 0 0 0 0 0 0 0 0 0 0 0 0 0 0 0 0 0 0 -0 0 0 0 0 0 0 0 0 0 0 0 -0 -0 -0 -0 -0 -0 0
0 0 0 0 0 0 0 0 0 0 0 0 0 0 0 0 0 0 0 0 0 0 0 0 0 0 0 0 0 0 0 0 0 0 0 0 0 0 0 0 0 0 0 0 0 0 0 -0 -0 -0 -0 -0 -0 -0
0 0 0 0 0 0 0 0 0 0 0 0 0 0 0 0 0 0 0 0 0 0 0 0 0 0 0 0 0 0 0 0 0 0 0 0 0 0 0 0 0 0 0 0 0 0 0 0 -0 0 0 0 0 0
-0 0 0 0 0 0 0 0 0 0 0 0 0 0 0 0 0 0 0 0 0 0 0 0 0 0 -0 -0 0 0 0 0 0 0 0 0 0 0 0 0 0 0 0 0 0 0 0 0 0 0 0 0 0 0
-0 0 0 0 0 0 0 0 0 0 0 0 0 0 0 0 0 0 0 0 0 0 0 -0 -0 -0 -0 0 -0 -0 0 0 0 0 0 0 0 0 0 0 0 -0 -0 -0 -0 0 0 0 0 0 0 0 0 0
0 0 0 0 0 0 0 0 0 0 0 0 0 0 0 0 0 0 0 0 0 0 0 -0 -0 -0 0 0 0 0 0 0 0 0 0 0 0 0 0 0 0 0 0 0 0 0 0 0 0 0 0 0 0 0
-0 0 -0 -0 -0 0 0 0 0 0 0 0 0 0 0 0 0 -0 0 0 -0 -0 -0 -0 -0 -0 0 0 0 0 0 0 0 0 0 0 -0 -0 -0 -0 0 0 0 0 0 0 0 0 0 0 0 0 0 0
0 -0 -0 0 0 0 -0 -0 -0 -0 0 0 0 0 -0 -0 -0 0 0 -0 -0 0 0 0 0 0 0 0 0 0 0 0 0 0 0 0 0 -0 0 0 0 0 0 0 0 0 0 0 0 0 0 0 0 0
-0 0 0 0 0 -0 -0 -0 -0 0 0 0 -0 0 0 -0 -0 0 -0 0 -0 -0 -0 -0 -0 -0 0 -0 -0 -0 -0 0 0 0 0 0 0 0 0 0 0 0 0 0 0 0 0 0 0 0 0 0 0 0
-0 -0 -0 -0 0 -0 -0 -0 -0 -0 -0 -0 -0 -0 0 0 0 0 0 0 0 0 0 -0 -0 0 0 -0 -0 -0 -0 0 0 0 0 0 0 0 0 0 0 0 0 0 0 0 0 0 0 0 0 0 0 0
0 0 0 0 0 0 -0 -0 -0 -0 0 -0 -0 -0 -0 -0 -0 -0 0 0 0 0 0 0 0 0 0 0 0 0 0 0 0 0 0 0 0 0 0 0 0 0 0 0 0 0 0 0 0 0 0 0 0 0
0 0 0 0 0 0 0 0 -0 -0 -0 -0 0 -0 0 0 0 0 -0 0 0 0 0 0 0 0 0 0 0 0 0 0 0 0 0 0 0 0 0 0 0 0 0 0 0 0 0 0 0 0 0 0 0 0
Wind_Speed_500mb
48 48 47 47 45 44 45 44 51 51 52 51 52 49 46 41 42 44 54 51 49 34 53 50 49 37 27 17 8 8 7 8 4 4 7 8 6 8 2 6 14 10 8 17 8 9 20 55 42 12 24 39 25 30
55 53 51 49 49 49 47 47 46 52 57 53 54 52 50 50 45 41 52 48 51 56 44 34 34 42 55 55 41 23 18 13 14 5 1 4 3 3 8 15 9 8 10 6 5 13 45 49 26 54 21 25 28 42
60 57 57 49 55 49 47 46 52 50 53 54 53 52 51 50 48 46 53 54 55 54 53 69 60 81 70 72 71 44 41 40 41 46 9 6 10 8 6 12 9 9 24 7 10 15 27 53 58 36 39 47 55 53
66 61 61 61 56 50 54 51 52 55 53 53 50 54 52 51 48 49 55 58 55 23 11 27 39 53 64 65 56 64 77 59 44 34 17 9 11 23 10 16 21 16 4 13 20 33 48 42 45 43 45 42 39 54
64 65 66 65 63 56 51 50 49 53 48 52 56 57 55 54 51 52 56 59 52 46 8 22 47 47 39 43 46 48 63 72 52 20 10 9 9 7 6 9 20 34 35 24 31 46 39 47 55 47 38 36 53 43
66 63 65 65 63 61 58 52 50 49 54 56 53 53 50 48 45 47 48 67 60 56 20 8 37 55 64 77 87 70 64 71 49 14 8 17 47 17 10 10 23 48 61 76 39 55 50 66 68 29 33 63 58 67
65 63 64 63 59 57 57 57 50 45 51 51 49 48 48 49 48 57 13 13 23 29 15 7 8 23 58 65 63 60 57 42 41 41 18 26 33 31 15 28 31 54 66 52 41 40 42 28 25 55 58 59 73 85
65 64 62 62 63 55 53 52 51 49 48 49 49 48 47 46 50 63 72 59 41 29 17 8 8 5 28 17 17 40 29 27 25 21 12 13 25 16 17 29 59 47 36 23 18 23 31 51 62 56 69 74 87 99
69 67 64 60 57 52 51 51 51 47 47 48 45 41 43 49 36 45 48 45 52 45 8 9 8 9 17 14 15 15 21 5 15 10 10 14 7 12 13 9 5 9 8 20 36 40 42 43 67 73 76 81 68 88
58 60 52 57 58 54 50 52 48 44 43 37 35 31 16 20 38 28 15 15 22 25 29 8 24 8 24 22 10 9 10 6 5 9 5 6 15 40 1 2 2 10 16 26 40 37 59 75 66 78 74 75 73 82
49 50 53 60 60 57 53 49 43 40 34 32 16 16 19 24 21 15 13 13 14 5 14 18 25 5 24 6 7 17 6 2 5 10 11 3 6 7 4 5 10 16 22 30 36 46 51 60 77 86 100 93 88 88
55 52 50 47 54 52 46 44 42 40 42 27 15 16 26 17 14 10 8 2 6 11 7 7 10 20 14 15 7 7 7 3 11 3 7 6 5 8 9 16 21 28 38 44 48 58 61 62 69 74 78 85 83 83
40 40 43 49 50 50 46 44 42 42 37 38 19 18 14 13 10 14 14 5 3 6 8 5 2 4 7 9 1 5 8 11 7 4 9 8 5 12 27 33 39 43 48 56 62 64 68 72 70 67 74 76 77 81
43 44 44 40 38 40 39 40 42 41 35 21 19 13 12 8 9 9 11 9 9 10 15 10 3 4 4 3 4 6 9 6 5 7 13 1 14 33 36 40 48 56 57 62 66 69 70 69 70 67 67 68 71 75
37 36 39 37 34 35 39 42 43 46 28 21 15 11 9 6 8 14 25 25 12 14 10 5 2 2 2 5 6 4 6 9 11 11 3 9 28 34 41 44 48 55 60 63 63 65 66 64 63 65 63 67 60 60
28 24 28 31 34 36 41 45 51 53 24 16 5 6 1 7 2 8 16 16 14 15 12 5 3 2 8 6 5 10 7 12 7 5 11 26 33 37 39 43 48 52 54 57 58 58 58 55 55 59 61 53 50 46
25 29 27 27 29 29 30 40 40 17 10 12 5 12 5 9 16 11 11 16 15 13 5 5 8 21 3 4 7 6 9 4 6 19 20 25 31 35 37 41 44 46 49 50 52 49 48 46 48 48 54 48 41 37
22 22 25 23 20 19 18 13 13 9 9 12 0 6 11 8 29 17 15 16 13 12 10 8 4 3 10 11 8 5 2 7 18 18 24 21 21 25 30 37 39 40 44 42 39 39 41 41 40 44 44 39 35 35
18 25 31 30 35 11 9 6 6 9 8 11 16 15 14 19 21 20 16 15 15 12 11 6 5 6 6 4 6 7 7 10 17 24 24 14 19 24 26 30 34 35 34 32 32 35 35 29 31 34 33 32 32 33
8 12 6 42 42 11 9 10 9 17 6 8 12 13 9 12 15 21 19 17 14 9 5 4 7 6 7 7 6 12 13 14 18 25 14 15 20 22 24 31 32 30 30 30 29 32 33 32 29 28 27 28 28 30
9 9 20 36 35 16 13 10 12 12 17 12 15 5 10 9 9 9 9 11 3 4 3 7 9 7 6 9 9 8 9 11 11 11 19 20 21 22 26 31 28 31 35 37 39 38 36 34 30 26 26 27 26 26
16 15 13 14 12 11 16 16 11 12 9 12 8 7 9 4 6 5 5 4 3 3 6 7 7 5 4 4 3 2 1 1 5 6 7 9 14 19 25 31 34 37 39 39 39 39 37 33 30 28 28 28 26 26
11 7 11 13 10 11 5 6 9 9 7 1 6 6 4 2 4 4 4 1 2 6 8 7 9 10 10 8 9 10 11 9 8 8 9 9 10 12 16 23 29 32 34 35 35 37 39 36 35 34 31 30 30 30
10 10 16 15 21 4 7 14 9 9 9 8 6 4 5 1 3 5 2 5 7 11 11 11 15 16 14 12 11 10 8 7 8 10 10 10 9 12 15 18 22 26 26 26 28 30 32 34 34 34 34 34 34 34
7 21 14 12 14 10 10 9 10 8 5 3 6 5 4 5 4 2 4 5 18 17 15 15 16 15 13 11 8 4 3 5 8 9 9 11 13 12 12 15 19 22 24 23 23 25 26 26 28 30 30 30 30 30
15 17 10 2 9 7 0 6 4 3 3 6 3 5 4 5 3 8 6 10 16 23 22 21 19 16 13 10 7 5 5 8 10 11 10 12 14 15 17 19 19 21 24 26 26 26 26 26 25 25 23 23 23 23
10 7 11 13 5 7 9 9 6 6 5 5 2 3 5 1 7 6 5 14 15 19 20 18 15 13 10 7 5 6 8 9 12 12 13 12 11 10 13 16 19 20 22 23 25 27 28 27 27 26 25 26 25 24
8 9 6 10 10 10 8 4 4 3 4 4 5 2 10 11 7 2 6 16 16 19 20 20 19 15 10 7 6 8 11 13 12 11 9 8 9 8 10 12 16 19 23 26 27 27 28 28 27 26 26 25 25 24
9 6 5 8 7 8 2 5 6 3 6 6 6 4 6 7 5 3 7 17 22 22 22 21 17 14 11 8 9 9 10 10 10 11 11 10 8 9 11 15 18 21 23 24 27 31 32 34 35 33 30 29 28 27
8 10 5 3 4 1 0 3 3 6 6 8 7 9 10 10 8 10 14 21 26 24 20 20 20 19 16 15 12 13 12 11 11 11 12 11 14 16 18 22 25 28 32 34 35 33 32 34 32 33 33 32 31 30
7 5 3 2 3 1 1 5 11 13 10 8 15 13 12 12 9 10 17 21 24 28 30 29 26 23 22 21 19 19 16 15 14 17 22 24 25 25 27 29 30 34 37 40 42 42 41 39 37 36 33 30 28 29
7 4 3 3 3 2 5 6 4 3 4 5 5 6 6 7 7 3 4 16 26 28 23 23 24 18 17 21 25 24 22 23 25 27 30 31 31 29 29 32 35 40 45 48 49 48 46 45 43 38 36 33 31 31
3 3 3 4 3 2 7 12 4 6 4 4 3 4 4 6 9 2 2 2 3 6 10 17 19 20 22 22 22 22 24 26 27 29 31 32 33 35 40 42 45 48 52 53 50 48 47 47 47 46 45 43 42 42
Wind_Direction_500mb
260 261 263 259 261 262 268 267 258 263 258 253 252 249 248 249 253 250 249 239 238 248 263 261 253 251 243 232 177 224 336 270 44 152 157 231 193 216 207 242 312 285 285 300 327 309 252 4 344 351 289 312 307 333
257 259 258 258 258 262 264 267 266 254 257 255 252 251 249 250 251 251 256 253 249 243 251 262 260 254 246 245 245 221 225 197 230 97 303 76 313 348 177 274 215 269 199 234 195 255 294 306 297 305 297 325 332 321
256 255 257 258 258 260 263 264 265 260 264 260 257 255 252 253 248 250 257 261 252 244 253 253 257 268 263 248 243 239 249 236 237 244 209 217 221 133 203 233 245 269 258 220 297 259 271 290 294 279 311 316 310 307
264 259 256 253 255 256 261 261 262 259 252 261 262 258 256 252 250 251 252 252 250 238 242 262 267 255 262 261 253 242 248 247 249 246 230 210 231 196 217 242 240 234 275 241 268 280 280 282 294 299 307 299 295 303
262 263 260 259 255 249 251 255 259 267 256 253 255 253 254 253 252 253 253 249 246 236 273 285 280 271 283 244 239 247 245 244 242 238 218 232 223 212 219 250 252 244 250 257 262 274 288 287 295 308 297 301 314 306
259 260 257 258 257 251 251 254 255 256 260 261 256 255 251 251 249 252 257 249 238 240 251 256 275 265 254 249 251 251 245 239 231 226 233 234 241 217 240 242 249 247 252 256 264 275 275 282 298 289 287 308 308 305
258 258 258 256 253 252 252 249 250 258 262 264 260 256 252 249 246 235 213 161 180 214 237 252 260 246 242 240 237 237 236 229 226 242 232 243 250 245 259 262 262 262 264 274 274 284 286 286 288 295 307 306 307 308
263 256 257 256 256 250 252 256 252 251 257 261 262 257 256 257 250 242 242 243 240 226 222 245 260 302 187 183 196 219 216 211 220 232 239 236 256 233 250 253 259 270 268 277 258 283 285 295 298 302 308 312 312 310
263 258 251 252 249 244 248 251 249 249 256 258 257 256 256 245 229 236 249 251 245 235 225 206 184 223 196 221 205 182 193 169 205 206 224 211 212 231 234 286 351 349 355 308 300 304 306 299 304 310 313 312 305 305
259 248 251 250 243 238 245 249 247 244 251 253 249 241 220 195 230 233 229 206 205 216 220 236 206 212 180 184 197 138 193 206 194 237 202 200 236 244 307 66 2 326 321 322 331 325 319 313 313 312 309 307 303 300
258 259 258 250 245 234 238 244 240 240 241 235 216 219 206 176 170 187 199 196 206 225 207 203 193 189 197 148 194 208 186 187 156 251 161 294 281 121 83 338 318 319 318 318 310 305 304 303 306 309 309 309 306 305
263 261 259 254 233 227 232 233 231 227 228 227 234 208 188 182 187 186 195 226 197 213 218 165 211 209 194 197 151 191 167 101 227 113 96 254 233 95 357 331 323 320 319 316 316 314 314 309 310 307 302 304 305 304
264 258 258 249 243 233 228 227 224 227 229 226 224 189 188 175 189 181 177 193 236 211 191 165 256 209 168 178 98 127 166 217 101 97 215 225 76 349 339 333 326 326 327 323 320 320 319 319 321 317 311 314 316 311
261 261 256 251 237 226 223 224 223 219 217 193 184 211 186 176 220 185 178 177 162 165 148 152 187 143 172 132 197 207 227 110 191 213 231 216 332 332 332 331 329 328 328 325 324 323 323 324 324 323 324 325 316 312
259 255 241 230 225 228 231 230 225 219 219 209 175 207 202 136 73 134 130 124 124 151 149 121 284 226 257 234 209 232 235 241 205 218 172 294 321 325 325 326 325 325 326 324 326 325 325 327 326 325 330 323 324 324
249 241 230 222 236 246 237 230 220 218 222 197 132 116 341 103 331 145 128 117 130 148 135 107 105 96 251 211 216 218 158 223 233 212 293 319 323 324 324 324 325 325 324 324 326 326 326 326 329 330 328 334 335 336
233 243 247 246 248 235 215 201 199 172 183 126 119 117 104 63 113 124 119 134 138 145 167 124 150 215 339 248 237 197 211 208 196 308 320 325 320 322 324 323 326 327 328 331 329 328 327 333 334 331 335 342 346 351
231 240 240 232 239 215 163 140 135 107 67 58 67 105 73 84 110 118 125 136 135 151 151 195 119 146 203 196 252 229 198 235 296 308 321 330 324 328 330 330 333 336 337 334 333 335 341 338 338 340 342 349 358 6
211 233 243 243 222 162 123 83 95 97 79 87 99 86 92 94 97 124 133 131 149 146 151 118 125 211 230 186 186 196 270 308 308 319 327 351 347 345 346 346 350 347 345 346 349 353 347 349 351 349 351 0 9 16
244 262 266 157 174 117 89 58 72 93 119 135 103 94 92 99 110 98 112 130 144 150 95 169 208 186 155 178 255 291 299 299 303 318 356 35 15 11 10 9 0 0 6 11 15 11 7 11 15 12 12 15 22 25
172 138 121 111 95 81 86 66 67 81 116 113 128 77 83 117 87 80 91 125 146 122 188 174 154 177 247 269 271 281 288 289 302 303 323 344 20 18 26 27 24 28 27 24 25 24 20 16 15 22 31 38 38 37
107 105 86 75 75 75 71 50 95 99 80 106 87 74 62 40 36 59 79 84 140 145 148 161 185 205 199 190 225 255 242 2 346 346 349 360 13 24 28 30 32 36 35 31 32 31 29 28 33 37 42 44 50 55
113 74 54 45 98 66 49 48 77 48 89 93 85 56 15 42 73 59 60 180 163 162 158 158 152 145 144 137 124 108 91 77 78 69 54 39 26 20 21 25 28 31 34 34 33 35 37 39 44 47 51 54 57 60
100 57 32 37 34 55 34 29 48 61 65 44 61 48 356 295 25 47 252 259 182 182 171 162 160 154 153 143 135 124 107 85 65 59 48 30 14 10 11 15 16 20 18 16 23 28 32 36 38 42 45 48 50 51
90 11 21 10 28 52 43 19 2 50 73 315 81 21 331 6 46 356 234 244 189 187 179 172 172 179 177 170 175 189 260 293 292 293 311 339 356 2 5 1 3 5 5 6 12 16 19 22 27 31 34 36 39 41
66 4 41 321 353 74 182 75 46 136 94 51 37 320 15 73 56 253 236 195 188 190 186 181 179 182 190 199 216 245 295 314 313 304 306 314 330 341 354 0 5 7 4 3 6 10 9 8 9 11 13 17 20 23
67 351 34 38 50 103 74 63 86 79 79 129 240 46 69 111 252 253 191 186 183 182 179 182 184 184 188 195 234 277 297 311 333 314 304 304 310 324 344 358 5 5 4 4 1 359 359 1 2 3 2 357 357 356
83 36 80 348 45 39 117 68 79 141 195 153 103 159 173 197 239 278 200 180 178 179 181 180 183 190 206 230 270 300 306 304 306 316 313 308 318 317 342 356 359 359 0 359 357 353 350 348 346 346 345 345 345 345
55 44 23 24 31 35 116 143 203 159 149 167 150 243 251 250 261 283 209 189 187 188 195 198 204 214 225 255 292 302 306 304 293 308 312 308 318 330 335 333 332 333 334 335 336 336 336 335 335 333 330 328 328 329
23 13 74 68 91 302 167 154 133 171 206 229 265 277 271 270 275 252 224 210 206 205 205 215 227 236 244 257 274 286 298 300 297 295 304 309 312 314 314 313 313 312 314 317 319 319 317 315 315 314 315 314 314 316
348 346 36 61 214 138 217 273 275 265 249 251 244 250 274 299 294 239 221 211 208 211 217 226 235 242 251 259 272 281 284 285 287 300 304 305 308 309 308 306 307 307 309 312 314 315 313 312 313 313 313 313 314 313
346 21 118 18 305 303 316 333 291 270 240 247 243 253 279 285 277 238 218 222 227 232 237 240 246 255 267 266 266 279 289 288 292 295 296 301 305 308 309 311 313 312 312 312 312 311 309 307 305 303 300 300 302 304
323 332 341 334 5 21 349 341 15 336 263 273 261 282 275 271 252 228 238 279 241 218 222 235 244 247 254 273 286 291 293 297 298 298 300 300 302 305 306 308 309 311 311 309 308 306 304 300 297 295 294 293 293 294
Wind_Speed_850mb
48 48 47 47 45 44 45 44 51 51 52 51 52 49 46 41 42 44 54 51 49 34 53 50 49 37 27 17 8 8 7 8 4 4 7 8 6 8 2 6 14 10 8 17 8 9 20 55 42 12 24 39 25 30
55 53 51 49 49 49 47 47 46 52 57 53 54 52 50 50 45 41 52 48 51 56 44 34 34 42 55 55 41 23 18 13 14 5 1 4 3 3 8 15 9 8 10 6 5 13 45 49 26 54 21 25 28 42
60 57 57 49 55 49 47 46 52 50 53 54 53 52 51 50 48 46 53 54 55 54 53 69 60 81 70 72 71 44 41 40 41 46 9 6 10 8 6 12 9 9 24 7 10 15 27 53 58 36 39 47 55 53
66 61 61 61 56 50 54 51 52 55 53 53 50 54 52 51 48 49 55 58 55 23 11 27 39 53 64 65 56 64 77 59 44 34 17 9 11 23 10 16 21 16 4 13 20 33 48 42 45 43 45 42 39 54
64 65 66 65 63 56 51 50 49 53 48 52 56 57 55 54 51 52 56 59 52 46 8 22 47 47 39 43 46 48 63 72 52 20 10 9 9 7 6 9 20 34 35 24 31 46 39 47 55 47 38 36 53 43
66 63 65 65 63 61 58 52 50 49 54 56 53 53 50 48 45 47 48 67 60 56 20 8 37 55 64 77 87 70 64 71 49 14 8 17 47 17 10 10 23 48 61 76 39 55 50 66 68 29 33 63 58 67
65 63 64 63 59 57 57 57 50 45 51 51 49 48 48 49 48 57 13 13 23 29 15 7 8 23 58 65 63 60 57 42 41 41 18 26 33 31 15 28 31 54 66 52 41 40 42 28 25 55 58 59 73 85
65 64 62 62 63 55 53 52 51 49 48 49 49 48 47 46 50 63 72 59 41 29 17 8 8 5 28 17 17 40 29 27 25 21 12 13 25 16 17 29 59 47 36 23 18 23 31 51 62 56 69 74 87 99
69 67 64 60 57 52 51 51 51 47 47 48 45 41 43 49 36 45 48 45 52 45 8 9 8 9 17 14 15 15 21 5 15 10 10 14 7 12 13 9 5 9 8 20 36 40 42 43 67 73 76 81 68 88
58 60 52 57 58 54 50 52 48 44 43 37 35 31 16 20 38 28 15 15 22 25 29 8 24 8 24 22 10 9 10 6 5 9 5 6 15 40 1 2 2 10 16 26 40 37 59 75 66 78 74 75 73 82
49 50 53 60 60 57 53 49 43 40 34 32 16 16 19 24 21 15 13 13 14 5 14 18 25 5 24 6 7 17 6 2 5 10 11 3 6 7 4 5 10 16 22 30 36 46 51 60 77 86 100 93 88 88
55 52 50 47 54 52 46 44 42 40 42 27 15 16 26 17 14 10 8 2 6 11 7 7 10 20 14 15 7 7 7 3 11 3 7 6 5 8 9 16 21 28 38 44 48 58 61 62 69 74 78 85 83 83
40 40 43 49 50 50 46 44 42 42 37 38 19 18 14 13 10 14 14 5 3 6 8 5 2 4 7 9 1 5 8 11 7 4 9 8 5 12 27 33 39 43 48 56 62 64 68 72 70 67 74 76 77 81
43 44 44 40 38 40 39 40 42 41 35 21 19 13 12 8 9 9 11 9 9 10 15 10 3 4 4 3 4 6 9 6 5 7 13 1 14 33 36 40 48 56 57 62 66 69 70 69 70 67 67 68 71 75
37 36 39 37 34 35 39 42 43 46 28 21 15 11 9 6 8 14 25 25 12 14 10 5 2 2 2 5 6 4 6 9 11 11 3 9 28 34 41 44 48 55 60 63 63 65 66 64 63 65 63 67 60 60
28 24 28 31 34 36 41 45 51 53 24 16 5 6 1 7 2 8 16 16 14 15 12 5 3 2 8 6 5 10 7 12 7 5 11 26 33 37 39 43 48 52 54 57 58 58 58 55 55 59 61 53 50 46
25 29 27 27 29 29 30 40 40 17 10 12 5 12 5 9 16 11 11 16 15 13 5 5 8 21 3 4 7 6 9 4 6 19 20 25 31 35 37 41 44 46 49 50 52 49 48 46 48 48 54 48 41 37
22 22 25 23 20 19 18 13 13 9 9 12 0 6 11 8 29 17 15 16 13 12 10 8 4 3 10 11 8 5 2 7 18 18 24 21 21 25 30 37 39 40 44 42 39 39 41 41 40 44 44 39 35 35
18 25 31 30 35 11 9 6 6 9 8 11 16 15 14 19 21 20 16 15 15 12 11 6 5 6 6 4 6 7 7 10 17 24 24 14 19 24 26 30 34 35 34 32 32 35 35 29 31 34 33 32 32 33
8 12 6 42 42 11 9 10 9 17 6 8 12 13 9 12 15 21 19 17 14 9 5 4 7 6 7 7 6 12 13 14 18 25 14 15 20 22 24 31 32 30 30 30 29 32 33 32 29 28 27 28 28 30
9 9 20 36 35 16 13 10 12 12 17 12 15 5 10 9 9 9 9 11 3 4 3 7 9 7 6 9 9 8 9 11 11 11 19 20 21 22 26 31 28 31 35 37 39 38 36 34 30 26 26 27 26 26
16 15 13 14 12 11 16 16 11 12 9 12 8 7 9 4 6 5 5 4 3 3 6 7 7 5 4 4 3 2 1 1 5 6 7 9 14 19 25 31 34 37 39 39 39 39 37 33 30 28 28 28 26 26
11 7 11 13 10 11 5 6 9 9 7 1 6 6 4 2 4 4 4 1 2 6 8 7 9 10 10 8 9 10 11 9 8 8 9 9 10 12 16 23 29 32 34 35 35 37 39 36 35 34 31 30 30 30
10 10 16 15 21 4 7 14 9 9 9 8 6 4 5 1 3 5 2 5 7 11 11 11 15 16 14 12 11 10 8 7 8 10 10 10 9 12 15 18 22 26 26 26 28 30 32 34 34 34 34 34 34 34
7 21 14 12 14 10 10 9 10 8 5 3 6 5 4 5 4 2 4 5 18 17 15 15 16 15 13 11 8 4 3 5 8 9 9 11 13 12 12 15 19 22 24 23 23 25 26 26 28 30 30 30 30 30
15 17 10 2 9 7 0 6 4 3 3 6 3 5 4 5 3 8 6 10 16 23 22 21 19 16 13 10 7 5 5 8 10 11 10 12 14 15 17 19 19 21 24 26 26 26 26 26 25 25 23 23 23 23
10 7 11 13 5 7 9 9 6 6 5 5 2 3 5 1 7 6 5 14 15 19 20 18 15 13 10 7 5 6 8 9 12 12 13 12 11 10 13 16 19 20 22 23 25 27 28 27 27 26 25 26 25 24
8 9 6 10 10 10 8 4 4 3 4 4 5 2 10 11 7 2 6 16 16 19 20 20 19 15 10 7 6 8 11 13 12 11 9 8 9 8 10 12 16 19 23 26 27 27 28 28 27 26 26 25 25 24
9 6 5 8 7 8 2 5 6 3 6 6 6 4 6 7 5 3 7 17 22 22 22 21 17 14 11 8 9 9 10 10 10 11 11 10 8 9 11 15 18 21 23 24 27 31 32 34 35 33 30 29 28 27
8 10 5 3 4 1 0 3 3 6 6 8 7 9 10 10 8 10 14 21 26 24 20 20 20 19 16 15 12 13 12 11 11 11 12 11 14 16 18 22 25 28 32 34 35 33 32 34 32 33 33 32 31 30
7 5 3 2 3 1 1 5 11 13 10 8 15 13 12 12 9 10 17 21 24 28 30 29 26 23 22 21 19 19 16 15 14 17 22 24 25 25 27 29 30 34 37 40 42 42 41 39 37 36 33 30 28 29
7 4 3 3 3 2 5 6 4 3 4 5 5 6 6 7 7 3 4 16 26 28 23 23 24 18 17 21 25 24 22 23 25 27 30 31 31 29 29 32 35 40 45 48 49 48 46 45 43 38 36 33 31 31
3 3 3 4 3 2 7 12 4 6 4 4 3 4 4 6 9 2 2 2 3 6 10 17 19 20 22 22 22 22 24 26 27 29 31 32 33 35 40 42 45 48 52 53 50 48 47 47 47 46 45 43 42 42
Wind_Direction_850mb
260 261 263 259 261 262 268 267 258 263 258 253 252 249 248 249 253 250 249 239 238 248 263 261 253 251 243 232 177 224 336 270 44 152 157 231 193 216 207 242 312 285 285 300 327 309 252 4 344 351 289 312 307 333
257 259 258 258 258 262 264 267 266 254 257 255 252 251 249 250 251 251 256 253 249 243 251 262 260 254 246 245 245 221 225 197 230 97 303 76 313 348 177 274 215 269 199 234 195 255 294 306 297 305 297 325 332 321
256 255 257 258 258 260 263 264 265 260 264 260 257 255 252 253 248 250 257 261 252 244 253 253 257 268 263 248 243 239 249 236 237 244 209 217 221 133 203 233 245 269 258 220 297 259 271 290 294 279 311 316 310 307
264 259 256 253 255 256 261 261 262 259 252 261 262 258 256 252 250 251 252 252 250 238 242 262 267 255 262 261 253 242 248 247 249 246 230 210 231 196 217 242 240 234 275 241 268 280 280 282 294 299 307 299 295 303
262 263 260 259 255 249 251 255 259 267 256 253 255 253 254 253 252 253 253 249 246 236 273 285 280 271 283 244 239 247 245 244 242 238 218 232 223 212 219 250 252 244 250 257 262 274 288 287 295 308 297 301 314 306
259 260 257 258 257 251 251 254 255 256 260 261 256 255 251 251 249 252 257 249 238 240 251 256 275 265 254 249 251 251 245 239 231 226 233 234 241 217 240 242 249 247 252 256 264 275 275 282 298 289 287 308 308 305
258 258 258 256 253 252 252 249 250 258 262 264 260 256 252 249 246 235 213 161 180 214 237 252 260 246 242 240 237 237 236 229 226 242 232 243 250 245 259 262 262 262 264 274 274 284 286 286 288 295 307 306 307 308
263 256 257 256 256 250 252 256 252 251 257 261 262 257 256 257 250 242 242 243 240 226 222 245 260 302 187 183 196 219 216 211 220 232 239 236 256 233 250 253 259 270 268 277 258 283 285 295 298 302 308 312 312 310
263 258 251 252 249 244 248 251 249 249 256 258 257 256 256 245 229 236 249 251 245 235 225 206 184 223 196 221 205 182 193 169 205 206 224 211 212 231 234 286 351 349 355 308 300 304 306 299 304 310 313 312 305 305
259 248 251 250 243 238 245 249 247 244 251 253 249 241 220 195 230 233 229 206 205 216 220 236 206 212 180 184 197 138 193 206 194 237 202 200 236 244 307 66 2 326 321 322 331 325 319 313 313 312 309 307 303 300
258 259 258 250 245 234 238 244 240 240 241 235 216 219 206 176 170 187 199 196 206 225 207 203 193 189 197 148 194 208 186 187 156 251 161 294 281 121 83 338 318 319 318 318 310 305 304 303 306 309 309 309 306 305
263 261 259 254 233 227 232 233 231 227 228 227 234 208 188 182 187 186 195 226 197 213 218 165 211 209 194 197 151 191 167 101 227 113 96 254 233 95 357 331 323 320 319 316 316 314 314 309 310 307 302 304 305 304
264 258 258 249 243 233 228 227 224 227 229 226 224 189 188 175 189 181 177 193 236 211 191 165 256 209 168 178 98 127 166 217 101 97 215 225 76 349 339 333 326 326 327 323 320 320 319 319 321 317 311 314 316 311
261 261 256 251 237 226 223 224 223 219 217 193 184 211 186 176 220 185 178 177 162 165 148 152 187 143 172 132 197 207 227 110 191 213 231 216 332 332 332 331 329 328 328 325 324 323 323 324 324 323 324 325 316 312
259 255 241 230 225 228 231 230 225 219 219 209 175 207 202 136 73 134 130 124 124 151 149 121 284 226 257 234 209 232 235 241 205 218 172 294 321 325 325 326 325 325 326 324 326 325 325 327 326 325 330 323 324 324
249 241 230 222 236 246 237 230 220 218 222 197 132 116 341 103 331 145 128 117 130 148 135 107 105 96 251 211 216 218 158 223 233 212 293 319 323 324 324 324 325 325 324 324 326 326 326 326 329 330 328 334 335 336
233 243 247 246 248 235 215 201 199 172 183 126 119 117 104 63 113 124 119 134 138 145 167 124 150 215 339 248 237 197 211 208 196 308 320 325 320 322 324 323 326 327 328 331 329 328 327 333 334 331 335 342 346 351
231 240 240 232 239 215 163 140 135 107 67 58 67 105 73 84 110 118 125 136 135 151 151 195 119 146 203 196 252 229 198 235 296 308 321 330 324 328 330 330 333 336 337 334 333 335 341 338 338 340 342 349 358 6
211 233 243 243 222 162 123 83 95 97 79 87 99 86 92 94 97 124 133 131 149 146 151 118 125 211 230 186 186 196 270 308 308 319 327 351 347 345 346 346 350 347 345 346 349 353 347 349 351 349 351 0 9 16
244 262 266 157 174 117 89 58 72 93 119 135 103 94 92 99 110 98 112 130 144 150 95 169 208 186 155 178 255 291 299 299 303 318 356 35 15 11 10 9 0 0 6 11 15 11 7 11 15 12 12 15 22 25
172 138 121 111 95 81 86 66 67 81 116 113 128 77 83 117 87 80 91 125 146 122 188 174 154 177 247 269 271 281 288 289 302 303 323 344 20 18 26 27 24 28 27 24 25 24 20 16 15 22 31 38 38 37
107 105 86 75 75 75 71 50 95 99 80 106 87 74 62 40 36 59 79 84 140 145 148 161 185 205 199 190 225 255 242 2 346 346 349 360 13 24 28 30 32 36 35 31 32 31 29 28 33 37 42 44 50 55
113 74 54 45 98 66 49 48 77 48 89 93 85 56 15 42 73 59 60 180 163 162 158 158 152 145 144 137 124 108 91 77 78 69 54 39 26 20 21 25 28 31 34 34 33 35 37 39 44 47 51 54 57 60
100 57 32 37 34 55 34 29 48 61 65 44 61 48 356 295 25 47 252 259 182 182 171 162 160 154 153 143 135 124 107 85 65 59 48 30 14 10 11 15 16 20 18 16 23 28 32 36 38 42 45 48 50 51
90 11 21 10 28 52 43 19 2 50 73 315 81 21 331 6 46 356 234 244 189 187 179 172 172 179 177 170 175 189 260 293 292 293 311 339 356 2 5 1 3 5 5 6 12 16 19 22 27 31 34 36 39 41
66 4 41 321 353 74 182 75 46 136 94 51 37 320 15 73 56 253 236 195 188 190 186 181 179 182 190 199 216 245 295 314 313 304 306 314 330 341 354 0 5 7 4 3 6 10 9 8 9 11 13 17 20 23
67 351 34 38 50 103 74 63 86 79 79 129 240 46 69 111 252 253 191 186 183 182 179 182 184 184 188 195 234 277 297 311 333 314 304 304 310 324 344 358 5 5 4 4 1 359 359 1 2 3 2 357 357 356
83 36 80 348 45 39 117 68 79 141 195 153 103 159 173 197 239 278 200 180 178 179 181 180 183 190 206 230 270 300 306 304 306 316 313 308 318 317 342 356 359 359 0 359 357 353 350 348 346 346 345 345 345 345
55 44 23 24 31 35 116 143 203 159 149 167 150 243 251 250 261 283 209 189 187 188 195 198 204 214 225 255 292 302 306 304 293 308 312 308 318 330 335 333 332 333 334 335 336 336 336 335 335 333 330 328 328 329
23 13 74 68 91 302 167 154 133 171 206 229 265 277 271 270 275 252 224 210 206 205 205 215 227 236 244 257 274 286 298 300 297 295 304 309 312 314 314 313 313 312 314 317 319 319 317 315 315 314 315 314 314 316
348 346 36 61 214 138 217 273 275 265 249 251 244 250 274 299 294 239 221 211 208 211 217 226 235 242 251 259 272 281 284 285 287 300 304 305 308 309 308 306 307 307 309 312 314 315 313 312 313 313 313 313 314 313
346 21 118 18 305 303 316 333 291 270 240 247 243 253 279 285 277 238 218 222 227 232 237 240 246 255 267 266 266 279 289 288 292 295 296 301 305 308 309 311 313 312 312 312 312 311 309 307 305 303 300 300 302 304
323 332 341 334 5 21 349 341 15 336 263 273 261 282 275 271 252 228 238 279 241 218 222 235 244 247 254 273 286 291 293 297 298 298 300 300 302 305 306 308 309 311 311 309 308 306 304 300 297 295 294 293 293 294